User: anonymous   Login
Location: Castillon
(43.0896°N, 0.2156°E)
Time: 05:54:09
(UTC+00:00)
Language:

Cosmos 389 Rocket - Orbit

View from above orbital plane
View from above orbital plane
View from above satellite
View from above satellite

Ground track
Ground track

The orbit data is extracted from the following two-line orbital elements,

1  4814U 70113B   21260.68200637  .00002217  00000-0  59957-4 0  9993
2  4814  81.1431 327.0385 0024222 133.5053 226.8206 15.36932418772775
Epoch (UTC): 17 September 2021 16:22:05
Eccentricity: 0.0024222
inclination: 81.1431°
perigee height: 438 km
apogee height: 472 km
right ascension of ascending node: 327.0385°
argument of perigee: 133.5053°
revolutions per day: 15.36932418
mean anomaly at epoch: 226.8206°
orbit number at epoch: 77277

The dashed part of the orbit path shows where the satellite is in the earth's shadow,  

DLR